www.pogodaiklimat.ru

Погода и климат >> Архив погоды >> Швеция >> Карлскруна


ПОГОДА в Карлскруне

  • Прогноз погоды в Карлскруне
  • Монитор погоды в Карлскруне

АРХИВ ПОГОДЫ в Карлскруне

Время (UTC), дата Ветер
(напр.,м/с)
 
Видим.   Явления Облачность Т
(С)
Тd
(С)
f
(%)
Тe
(С)
Тes
(С)
Комфортность P
(гПа)
Po
(гПа)
Тmin
(С)
Tmax
(С)
R
(мм)
R24
(мм)
S
(см)
19 11.09 ЮЗ 10-12
{12}
35 км ясно +17.5 +13.7 78 +16 +16 1017.0 1016.7
20 11.09 ЮЗ 10-14
{14}
12 км слаб. дождь ясно +16.6 +13.6 82 +15 +15 1017.0 1016.7 0.8
21 11.09 ЮЗ 9-12
{14}
11 км дождь ясно +15.9 +13.5 86 +14 +14 1016.7 1016.4 1
22 11.09 ЮЗ 10-13
{13}
12 км слаб. дождь ясно +15.5 +13.9 90 +13 +13 1016.4 1016.1 1
23 11.09 ЮЗ 7-11
{13}
13 км слаб. ливневой дождь 3/3 660 м
[]
+16.0 +14.0 88 +14 +14 1016.0 1015.7
00 12.09 ЮЗ 10-12
{14}
18 км в посл. час дождь {ливн. осадки} 4/4 270 м
[]
+15.5 +14.7 95 +13 +13 1015.6 1015.3 0.1
01 12.09 ЮЗ 9-12
{13}
40 км в посл. час морось {ливн. осадки} 1/1 270 м
[]
+15.8 +15.0 95 +14 +14 1015.7 1015.4
02 12.09 З 9-12
{12}
45 км {ливн. осадки, морось} 1/1 630 м
[]
+15.6 +14.3 92 +14 +14 1016.1 1015.8
03 12.09 З 8-10
{11}
45 км {ливн. осадки, морось} 3/3 270 м
[]
+15.4 +14.4 94 +13 +13 1016.6 1016.3
04 12.09 З 7-9
{9}
35 км {ливн. осадки, морось} ясно +15.0 +14.0 94 +13 +13 1017.2 1016.9
05 12.09 З 7-9
{10}
24 км {ливн. осадки, морось} ясно +15.0 +13.9 93 +13 +13 1018.1 1017.8
06 12.09 З 7-9
{9}
23 км {ливн. осадки, морось} ясно +14.9 +13.7 93 +13 +13 1018.9 1018.6 +14.7 +17.7 3
07 12.09 З 7-10
{10}
19 км ясно +15.1 +13.6 91 +13 +14 1019.7 1019.4
08 12.09 З 8-10
{10}
20 км ясно +15.3 +13.6 90 +13 +14 1020.2 1019.9
09 12.09 З 8-10
{11}
20 км ясно +15.8 +13.6 87 +14 +15 1020.7 1020.4
10 12.09 З 9-11
{11}
20 км ясно +16.3 +13.0 81 +15 +15 1021.2 1020.9
11 12.09 З 9-11
{11}
29 км ясно +16.8 +12.6 76 +15 +16 1021.5 1021.2
12 12.09 ЮЗ 7-9
{11}
24 км ясно +17.8 +13.0 73 +17 +19 1021.5 1021.2
13 12.09 З 9-12
{12}
30 км ясно +17.9 +12.7 72 +17 +17 1021.4 1021.1
14 12.09 З 9-11
{12}
35 км 1/1 1500 м
[]
+17.4 +12.4 72 +16 +17 1021.4 1021.1
15 12.09 ЮЗ 8-11
{11}
30 км ясно +17.4 +12.9 75 +16 +17 1021.3 1021.0
16 12.09 ЮЗ 7-9
{12}
30 км 1/1 1500 м
[]
+17.3 +12.9 75 +16 +16 1021.3 1021.0
17 12.09 З 6-8
{10}
35 км 1/0 2000 м
[]
+16.8 +13.3 80 +16 +16 1021.3 1021.0
18 12.09 З 7-8
{9}
30 км ясно +16.7 +13.8 83 +15 +15 1021.5 1021.2 +14.9 +18.1
19 12.09 З 8-11
{11}
30 км ясно +16.8 +13.9 83 +15 +15 1021.3 1021.0
20 12.09 З 8-10
{11}
28 км 1/0
[]
+16.5 +14.0 85
21 12.09 ЮЗ 8-11
{11}
28 км ясно +16.4 +13.8 85 +15 +15 1021.4 1021.1
22 12.09 ЮЗ 9-12
{12}
27 км 1/0
[]
+16.3 +13.9 86 +15 +15 1020.7 1020.4
23 12.09 ЮЗ 9-12
{12}
26 км 6/6 1500 м
[]
+16.3 +13.6 84 +15 +15 1020.4 1020.1
00 13.09 З 9-12
{12}
17 км слаб. морось ясно +16.1 +13.5 85 +14 +14 1019.8 1019.5
01 13.09 З 10-12
{12}
25 км в посл. час морось ясно +16.1 +13.6 85 +14 +14 1019.3 1019.0
02 13.09 З 10-12
{13}
24 км {ливн. осадки, морось} 10/10 1020 м
[]
+16.0 +13.5 85 +14 +14 1018.7 1018.4
03 13.09 ЮЗ 7-10
{13}
24 км {ливн. осадки, морось} 6/6 960 м
[]
+15.5 +13.7 89 +14 +14 1018.5 1018.2
04 13.09 З 7-10
{10}
18 км слаб. ливневой дождь {морось} 5/5 630 м
[]
+15.8 +14.1 90 +14 +14 1018.1 1017.8 0.1
05 13.09 ЮЗ 7-9
{10}
6000 м дождь {ливн. осадки, морось} 3/3 750 м
[]
+15.6 +14.4 93 +14 +14 1017.7 1017.4 0.3
06 13.09 З 7-10
{10}
6000 м слаб. дождь {морось} ?/? +15.1 +14.6 97 +13 +13 1017.7 1017.4 +15.0 +16.9 1
07 13.09 СЗ 3-5
{8}
24 км слаб. ливневой дождь ясно +15.1 +14.6 97 +14 +16 1017.9 1017.6 0.3
08 13.09 СЗ 5-8
{8}
45 км в посл. час дождь {ливн. осадки} ясно +15.7 +13.6 87 +14 +17 1018.3 1018.0 0.1
09 13.09 СЗ 7-11
{11}
40 км {ливн. осадки, дождь} ясно +16.1 +12.0 77 +15 +16 1019.2 1018.9
10 13.09 З 7-11
{12}
30 км {ливн. осадки, дождь} ясно +16.7 +10.7 68 +15 +17 1019.7 1019.4
11 13.09 З 8-12
{12}
35 км {ливн. осадки, дождь} 1/1 1170 м
[]
+17.1 +9.4 60 +16 +17 1020.3 1020.0
12 13.09 СЗ 7-12
{13}
40 км {ливн. осадки, дождь} ясно +18.0 +8.9 55 +17 +19 1021.0 1020.7 0.4
13 13.09 З 9-12
{13}
40 км 1/0
[]
+18.0 +8.8 55 +17 +18 1021.5 1021.2
14 13.09 З 7-12
{12}
40 км ясно +18.1 +8.3 53 +17 +19 1022.1 1021.8
15 13.09 З 8-12
{13}
45 км ясно +18.0 +7.2 49 +17 +18 1023.0 1022.7
16 13.09 СЗ 5-9
{12}
40 км ясно +17.8 +6.9 49 +17 +18 1023.4 1023.1
17 13.09 З 7-10
{11}
45 км ясно +16.6 +7.9 56 +15 +15 1024.4 1024.1
18 13.09 З 9-11
{11}
35 км ясно +15.5 +9.7 68 +13 +13 1025.1 1024.8 +15.0 +18.6 0.4
19 13.09 З 8-11
{11}
30 км ясно +14.8 +9.6 71 +13 +13 1025.7 1025.4
20 13.09 З 6-9
{11}
30 км ясно +14.2 +9.8 75 +12 +12 1026.3 1026.0
22 13.09 З 6-9
{10}
25 км ясно +13.3 +9.6 78 +11 +11 1027.0 1026.7
23 13.09 З 7-9
{9}
23 км ясно +13.2 +9.9 80 +11 +11 1027.4 1027.1
00 14.09 З 8-9
{10}
20 км ясно +12.9 +10.1 83 +10 +10 1027.4 1027.1
01 14.09 З 6-8
{10}
19 км ясно +12.8 +10.1 84 +10 +10 1027.4 1027.1
02 14.09 З 8-10
{10}
18 км ясно +13.0 +10.4 84 +10 +10 1027.5 1027.2
03 14.09 З 7-9
{11}
20 км 3/3 1020 м
[]
+12.9 +10.2 84 +10 +10 1027.8 1027.5
04 14.09 З 6-8
{9}
20 км ясно +12.5 +9.9 84 +10 +10 1027.9 1027.6
05 14.09 З 7-9
{9}
19 км ясно +12.2 +10.1 87 +9 +9 1028.1 1027.8
06 14.09 З 6-9
{9}
23 км ясно +12.4 +9.6 83 +10 +10 1028.5 1028.2 +12.1 +15.5
07 14.09 З 7-9
{9}
21 км ясно +12.8 +9.6 81 +10 +11 1028.7 1028.4
08 14.09 З 6-10
{10}
22 км 1/0
[]
+13.8 +9.3 74 +12 +13 1028.7 1028.4
09 14.09 З 6-8
{9}
23 км ясно +14.1 +9.9 76 +12 +14 1028.6 1028.3
10 14.09 З 8-11
{11}
25 км 1/0
[]
+14.9 +10.6 75 +13 +14 1028.2 1027.9
11 14.09 З 10-12
{12}
23 км ясно +15.2 +10.8 75 +13 +13 1027.4 1027.1
12 14.09 З 10-12
{13}
25 км ясно +15.6 +10.9 74 +13 +14 1027.4 1027.1
13 14.09 З 10-12
{13}
30 км ясно +16.5 +9.7 64 +15 +15 1027.0 1026.7
14 14.09 З 9-11
{13}
30 км ясно +15.4 +11.1 76 +13 +14 1026.6 1026.3
15 14.09 З 11-14
{14}
30 км ясно +15.2 +11.1 77 +13 +13 1026.3 1026.0
16 14.09 З 8-11
{14}
35 км ясно +16.3 +10.0 66 +15 +15 1025.8 1025.5
17 14.09 З 7-9
{11}
30 км ясно +14.5 +11.0 80 +12 +12 1025.8 1025.5
18 14.09 З 8-9
{10}
30 км 1/0
[]
+14.6 +10.8 78 +12 +12 1025.6 1025.3 +12.4 +17.0
19 14.09 З 6-7
{9}
30 км ясно +14.1 +11.2 83 +12 +12 1025.1 1024.8
20 14.09 З 7-9
{9}
40 км ясно +14.8 +10.3 74 +13 +13 1024.5 1024.2
21 14.09 ЮЗ 9-12
{12}
40 км 1/0
[]
+14.7 +11.0 78 +12 +12 1023.2 1022.9
22 14.09 З 10-12
{12}
40 км ясно +14.6 +11.1 80 +12 +12 1022.1 1021.8
23 14.09 ЮЗ 9-12
{13}
40 км ясно +14.5 +10.5 77 +12 +12 1021.1 1020.8
00 15.09 ЮЗ 10-13
{14}
40 км ясно +14.5 +11.0 80 +12 +12 1019.6 1019.3
01 15.09 З 11-13
{15}
35 км ясно +14.4 +11.1 81 +12 +12 1018.5 1018.2
02 15.09 ЮЗ 11-14
{16}
45 км ясно +14.6 +10.8 78 +12 +12 1016.7 1016.4
03 15.09 ЮЗ 11-14
{15}
35 км 3/0 2000 м
[]
+14.6 +11.1 80 +12 +12 1014.8 1014.5
04 15.09 З 12-16
{16}
35 км ясно +14.8 +11.1 78 +12 +12 1013.6 1013.3
05 15.09 З 11-15
{16}
35 км ясно +14.6 +11.0 79 +12 +12 1011.7 1011.4
06 15.09 ЮЗ 13-16
{17}
30 км ясно +14.7 +11.1 79 +12 +12 1010.6 1010.3 +14.0 +14.9
07 15.09 З 13-16
{20}
29 км 5/5 1000 м
[]
+14.8 +11.0 78 +12 +12 1009.8 1009.5
08 15.09 ЮЗ 12-17
{17}
16 км слаб. дождь 9/9 840 м
[]
+14.6 +11.5 82 +12 +12 1008.8 1008.5
09 15.09 ЮЗ 13-16
{17}
21 км слаб. ливневой дождь {морось} 8/8 750 м
[]
+14.6 +12.1 85 +12 +12 1007.9 1007.6 0.1
10 15.09 З 13-17
{17}
25 км {ливн. осадки, морось} 8/8 660 м
[]
+15.2 +12.5 84 +12 +12 1007.3 1007.0
11 15.09 З 10-16
{17}
24 км {ливн. осадки, морось} 5/5 540 м
[]
+14.8 +13.0 89 +12 +12 1007.9 1007.6
12 15.09 З 10-14
{16}
30 км {ливн. осадки, морось} ясно +16.5 +10.7 69 +15 +15 1007.4 1007.1 0.1
13 15.09 З 13-17
{17}
23 км ясно +17.0 +8.6 58 +15 +15 1007.3 1007.0
14 15.09 З 14-18
{18}
25 км ясно +16.5 +8.3 58 +14 +14 1007.6 1007.3
15 15.09 З 12-18
{19}
27 км 1/0
[]
+16.0 +7.1 55 +14 +14 1007.7 1007.4
16 15.09 З 8-12
{18}
19 км ясно +15.3 +8.7 65 +13 +14 1007.7 1007.4
17 15.09 З 13-17
{17}
17 км ясно +14.8 +8.5 66 +12 +12 1007.6 1007.3
18 15.09 З 10-17
{17}
16 км ясно +14.3 +8.5 68 +12 +12 1007.9 1007.6 +14.2 +17.1 0.1
19 15.09 З 11-14
{14}
15 км ясно +13.6 +8.5 71 +11 +11 1007.7 1007.4
20 15.09 З 12-15
{16}
16 км ясно +13.4 +8.8 74 +10 +10 1007.4 1007.1
21 15.09 З 13-17
{17}
20 км ясно +13.5 +8.9 74 +10 +10 1007.1 1006.8
22 15.09 З 11-15
{17}
22 км ясно +13.5 +9.0 74 +10 +10 1007.1 1006.8
23 15.09 З 11-15
{16}
18 км ясно +13.2 +9.1 76 +10 +10 1007.0 1006.7
00 16.09 З 11-15
{16}
16 км ясно +13.0 +9.4 79 +10 +10 1006.6 1006.3
01 16.09 З 11-16
{16}
18 км ясно +13.2 +9.1 76 +10 +10 1007.0 1006.7
02 16.09 З 10-14
{14}
19 км ясно +13.2 +9.3 77 +10 +10 1007.2 1006.9
03 16.09 З 11-16
{16}
19 км ясно +13.7 +8.8 72 +11 +11 1007.5 1007.2
04 16.09 З 7-15
{16}
20 км ясно +13.5 +8.3 71 +11 +11 1007.5 1007.2
05 16.09 З 8-12
{15}
22 км ясно +13.2 +8.0 71 +10 +10 1007.4 1007.1
06 16.09 З 8-12
{15}
27 км ясно +13.3 +7.9 70 +11 +11 1007.8 1007.5 +12.9 +14.2
07 16.09 З 8-11
{15}
30 км ясно +13.8 +7.6 66 +11 +12 1008.2 1007.9
08 16.09 СЗ 9-14
{14}
30 км ясно +14.2 +6.9 61 +12 +12 1008.4 1008.1
09 16.09 З 9-13
{14}
40 км ясно +14.8 +6.5 58 +13 +13 1008.3 1008.0
10 16.09 З 9-14
{14}
35 км ясно +15.1 +5.8 54 +13 +14 1008.5 1008.2
11 16.09 З 7-12
{14}
35 км 1/0
[]
+15.9 +5.9 51 +14 +16 1008.5 1008.2
12 16.09 З 9-12
{12}
35 км ясно +15.0 +8.5 65 +13 +14 1008.4 1008.1
13 16.09 З 10-14
{14}
30 км ясно +14.2 +8.7 69 +12 +12 1008.5 1008.2
14 16.09 З 9-13
{13}
26 км ливневой дождь {морось} 1/0
[]
+15.3 +7.4 59 +13 +14 1009.1 1008.8
15 16.09 З 7-12
{13}
35 км в посл. час дождь {ливн. осадки, морось} ясно +13.6 +7.6 67 +11 +12 1009.2 1008.9 0.3
16 16.09 З 7-11
{11}
35 км {ливн. осадки, морось} ясно +14.4 +7.5 63 +12 +12 1009.0 1008.7
17 16.09 З 8-11
{12}
35 км {ливн. осадки, морось} ясно +14.0 +7.3 64 +12 +12 1009.2 1008.9
18 16.09 З 10-12
{12}
25 км {ливн. осадки, морось} ясно +13.4 +7.2 66 +10 +10 1009.1 1008.8 +13.1 +16.2 0.3
19 16.09 З 9-12
{12}
28 км ясно +12.8 +7.2 69 +10 +10 1009.5 1009.2
20 16.09 З 7-9
{12}
28 км ясно +12.3 +7.7 73 +9 +9 1009.9 1009.6
21 16.09 З 7-8
{9}
25 км ясно +11.8 +8.4 80 +9 +9 1009.5 1009.2
22 16.09 З 7-8
{8}
40 км 1/1 1500 м
[]
+11.5 +8.2 80 +8 +8 1009.3 1009.0
23 16.09 З 7-8
{9}
30 км ясно +11.0 +8.9 87 +8 +8 1008.9 1008.6
00 17.09 З 6-7
{9}
35 км ясно +10.8 +9.1 89 +8 +8 1008.6 1008.3
01 17.09 З 7-9
{9}
40 км ясно +11.0 +9.5 90 +8 +8 1008.0 1007.7
02 17.09 З 9-11
{11}
40 км ясно +11.1 +9.5 90 +7 +7 1007.2 1006.9
03 17.09 З 9-11
{12}
10 км слаб. ливневой дождь 1/1 1140 м
[]
+10.8 +9.6 92 +7 +7 1006.6 1006.3 0.7
04 17.09 З 7-10
{11}
11 км дождь {ливн. осадки} 5/5 600 м
[]
+10.2 +9.2 94 +6 +6 1005.8 1005.5 2
05 17.09 З 7-10
{10}
12 км слаб. ливневой дождь 4/4 570 м
[]
+10.5 +9.5 94 +7 +7 1005.0 1004.7 2
06 17.09 З 8-10
{11}
28 км {ливн. осадки, дождь} ясно +10.8 +9.3 90 +7 +7 1004.4 1004.1 +9.8 +13.3 4
07 17.09 З 10-13
{13}
40 км ясно +10.7 +8.4 86 +6 +7 1003.7 1003.4
08 17.09 З 9-13
{13}
40 км ясно +11.2 +8.2 82 +7 +8 1003.2 1002.9
09 17.09 З 10-14
{14}
30 км ясно +11.8 +7.0 72 +8 +8 1002.5 1002.2
10 17.09 З 10-12
{14}
30 км 1/0
[]
+11.9 +7.7 75 +8 +9 1001.8 1001.5
11 17.09 З 9-16
{16}
8000 м ливневой дождь 4/4 700 м
[]
+8.3 +5.7 84 +3 +4 1002.5 1002.2 0.7
12 17.09 З 10-14
{14}
25 км слаб. ливневой дождь ясно +9.0 +6.2 83 +4 +4 1002.2 1001.9 0.6
13 17.09 З 11-15
{15}
30 км слаб. ливневой дождь ясно +8.8 +6.0 83 +4 +4 1001.1 1000.8 0.8
14 17.09 З 9-11
{15}
45 км {ливн. осадки, морось} 1/0
[]
+9.2 +5.7 79 +5 +5 1000.9 1000.6
15 17.09 З 6-9
{12}
40 км {ливн. осадки, морось} ясно +9.7 +6.5 80 +6 +7 1001.0 1000.7
16 17.09 З 7-9
{9}
45 км {ливн. осадки, морось} ясно +10.3 +7.4 82 +7 +7 1001.2 1000.9
17 17.09 З 4-6
{12}
50 км в посл. час дождь {ливн. осадки, морось} ясно +8.5 +5.3 80 +5 +5 1001.8 1001.5 0.8
18 17.09 СЗ 4-9
{10}
11 км морось {ливн. осадки, дождь} 4/4 870 м
[]
+8.1 +5.8 85 +5 +5 1002.8 1002.5 +8.0 +12.6 3
19 17.09 СЗ 5-9
{9}
45 км {морось} 1/1 720 м
[]
+7.8 +5.9 88 +4 +4 1003.7 1003.4
20 17.09 СЗ 5-9
{9}
50 км {ливн. осадки, морось} 1/1 1260 м
[]
+7.8 +5.6 86 +4 +4 1005.2 1004.9
21 17.09 СЗ 5-9
{9}
50 км {ливн. осадки, морось} ясно +8.1 +5.6 84 +4 +4 1006.2 1005.9
22 17.09 СЗ 4-7
{10}
50 км {ливн. осадки, морось} ясно +8.1 +5.5 84 +5 +5 1007.3 1007.0
23 17.09 СЗ 4-6
{7}
50 км {ливн. осадки, морось} ясно +8.3 +5.9 85 +5 +5 1008.3 1008.0
00 18.09 СЗ 4-8
{8}
45 км {ливн. осадки, морось} ясно +8.5 +5.7 83 +5 +5 1008.9 1008.6
01 18.09 СЗ 3-6
{8}
50 км ясно +7.9 +5.6 85 +5 +5 1009.6 1009.3
02 18.09 СЗ 3-5
{6}
50 км ясно +7.3 +5.2 87 +4 +4 1010.1 1009.8
03 18.09 СЗ 4-6
{7}
50 км ясно +7.0 +4.9 86 +3 +3 1010.4 1010.1
04 18.09 СЗ 3-6
{6}
50 км ясно +6.7 +4.4 85 +4 +4 1011.0 1010.7
06 18.09 СЗ 4-6
{7}
45 км ясно +7.1 +4.4 83 +4 +4 1012.3 1012.0 +6.6 +8.6
07 18.09 СЗ 4-7
{7}
45 км ясно +8.7 +5.1 78 +6 +7 1012.8 1012.5
08 18.09 СЗ 3-6
{7}
45 км ясно +10.9 +6.0 72 +9 +12 1013.3 1013.0
09 18.09 СЗ 5-8
{9}
40 км ясно +12.5 +4.7 59 +10 +13 1013.6 1013.3
10 18.09 СЗ 3-6
{8}
45 км ясно +13.6 +4.7 55 +13 +18 1013.7 1013.4
11 18.09 СЗ 4-8
{8}
45 км 1/1 1300 м
[]
+14.3 +4.9 53 +13 +17 1014.1 1013.8
12 18.09 СЗ 4-8
{8}
45 км ясно +14.3 +4.4 51 +13 +17 1014.6 1014.3
13 18.09 СЗ 4-6
{8}
40 км 5/5 1410 м
[]
+15.4 +5.5 52 +15 +16 1015.0 1014.7
14 18.09 СЗ 4-7
{8}
45 км ясно +14.7 +4.6 51 +14 +16 1015.2 1014.9
15 18.09 СЗ 5-8
{8}
40 км 1/1 1500 м
[]
+15.1 +4.8 50 +14 +15 1015.5 1015.2
16 18.09 СЗ 4-7
{8}
45 км 3/3 1500 м
[]
+15.0 +4.6 50 +14 +14 1015.7 1015.4
17 18.09 СЗ 1-4
{6}
50 км ясно +13.7 +6.2 60 +14 +14 1016.1 1015.8
18 18.09 СЗ 2-3
{3}
45 км 3/0
[]
+12.4 +7.3 71 +12 +12 1016.7 1016.4 +7.1 +15.5
19 18.09 СЗ 2-4
{5}
50 км ясно +11.5 +6.2 70 +11 +11 1017.5 1017.2

 

Местоположение метеостанции Карлскруна (Швеция): широта 56.15 долгота 15.58 высота над уровнем моря 2 м.

В архиве по умолчанию представлена погода в Карлскруне за последнюю неделю. Архивные данные за месяц целиком и за предыдущие месяцы, начиная с января 2011 года, Вы можете получить, выбрав интересующий диапазон дат из раскрывающегося списка и нажав кнопку "Ввод!".


*Определитесь, кто Вы:
робот инопланетянин человек

Внимание! Время в таблицах - всемирное. Для получения местного времени необходимо прибавить поправку, которая равна 1 ч.

Смотрите также архив погоды в соседних городах и на ближайших метеорологических станциях:

Погода в Роннебу (Швеция) (23 км)
Погода на Маяке Utklippan (Швеция) (23 км)
Погода в Хано (Швеция) (48 км)
Погода в Оландс Содра Удде (Швеция) (51 км)
Погода в Кальмаре (Швеция) (74 км)
Погода на Эландском мосту (Швеция) (78 км)
Погода в Косте (Швеция) (78 км)
Погода в Векшё (Швеция) (90 км)
Погода в Хестведе (Швеция) (103 км)
Погода на Маяке Hammer Odde (Дания) (107 км)

Пояснения к столбцам:

Ветер - указаны скорость ветра в м/с - средняя за 10 мин, порывы в срок и между сроками (в фигурных скобках) и направление, откуда дует ветер: С - северный, СВ - северо-восточный, В - восточный, ЮВ - юго-восточный, Ю - южный, ЮЗ - юго-западный, З - западный, СЗ - северо-западный.
Видимость - горизонтальная дальность видимости в метрах или километрах. При видимости от 1 до 10 км при отсутствии осадков обычно наблюдается дымка, при ухудшении видимости до 1 км и менее - туман. В сухую погоду видимость может ухудшаться дымом, пылью или мглою.
Явления - указаны атмосферные явления, наблюдавшиеся в срок или в последний час перед сроком; фигурными скобками обозначены явления, наблюдавшиеся между сроками (за 1-3 часа до срока); квадратными скобками обозначены град или гололедные отложения с указанием их диаметра в мм.
Облачность - указаны через наклонную черту общая и нижняя облачность в баллах и высота нижней границы облаков в метрах; квадратными скобками обозначены формы облаков: Ci - перистые, Cs - перисто-слоистые, Cc - перисто-кучевые, Ac - высококучевые, As - высокослоистые, Sc - слоисто-кучевые, Ns - слоисто-дождевые, Cu - кучевые, Cb - кучево-дождевые. Подробнее классификацию облаков см. в Атласе облаков (PDF).
T - Температура воздуха - температура, измеренная на высоте 2 м над землей.
Td - Температура точки росы - температура, при понижении до которой содержащийся в воздухе водяной пар достигнет насыщения.
f - Относительная влажность воздуха - влажноcть воздуха, измеренная на высоте 2 м над землей.
Te - Эффективная температура - температура, которую ощущает одетый по сезону человек в тени. Характеристика душности погоды. При расчете учитывается влияние влажности воздуха и скорости ветра на теплоощущения человека.
Tes - Эффективная температура на солнце - температура, которую ощущает человек, с поправкой на солнечный нагрев. Характеристика знойности погоды. Зависит от высоты солнца над горизонтом, облачности и скорости ветра. Ночью, в пасмурную погоду, а также при ветре 12 м/с и более поправка равна нулю.
P - Атмосферное давление - приведенное к уровню моря атмосферное давление.
Po - Атмосферное давление - измеренное на уровне метеостанции атмосферное давление.
Tmin - Минимальная температура - минимум температуры воздуха на высоте 2 м над землей.
Tmax - Максимальная температура - максимум температуры воздуха на высоте 2 м над землей.
R - Количество осадков - Количество выпавших осадков за период времени, мм. При наведении курсора мыши на число - период времени, за который выпало указанное количество осадков.
R24 - Количество осадков - Количество выпавших осадков за 24 часа, мм.
S - Снежный покров - Высота снежного покрова, см. При наведении курсора мыши на число - состояние снежного покрова и степень покрытия местности в баллах.